Time,TemperatureF,DewpointF,PressureIn,WindDirection,WindDirectionDegrees,WindSpeedMPH,WindSpeedGustMPH,Humidity,HourlyPrecipIn,Conditions,Clouds,dailyrainin,SoftwareType,DateUTC
2013-01-08 00:04:00,9.5,-2.8,29.50,NNW,338,1.1,2.9,53,-99.99,,,-99.99,WSDL version 423,2013-01-08 05:04:00,
2013-01-08 00:09:00,9.5,-2.8,29.50,North,350,0.6,2.7,53,-99.99,,,-99.99,WSDL version 423,2013-01-08 05:09:00,
2013-01-08 00:14:00,9.7,-2.6,29.50,NNW,332,1.0,2.5,53,-99.99,,,-99.99,WSDL version 423,2013-01-08 05:14:00,
2013-01-08 00:19:00,9.8,-2.5,29.50,North,353,0.0,2.2,53,-99.99,,,-99.99,WSDL version 423,2013-01-08 05:19:00,
2013-01-08 00:24:00,10.0,-2.3,29.50,NNW,340,0.8,2.0,53,-99.99,,,-99.99,WSDL version 423,2013-01-08 05:24:00,
2013-01-08 00:29:00,10.2,-2.1,29.50,NNW,335,0.0,2.0,53,-99.99,,,-99.99,WSDL version 423,2013-01-08 05:29:00,
2013-01-08 00:34:00,10.3,-2.1,29.50,NNW,338,0.6,2.0,53,-99.99,,,-99.99,WSDL version 423,2013-01-08 05:34:00,
2013-01-08 00:44:00,10.5,-1.9,29.50,WSW,248,0.0,0.9,53,-99.99,,,-99.99,WSDL version 423,2013-01-08 05:44:00,
2013-01-08 00:49:00,10.6,-1.7,29.50,South,186,0.0,0.0,53,-99.99,,,-99.99,WSDL version 423,2013-01-08 05:49:00,
2013-01-08 00:54:00,10.8,-1.6,29.47,NNW,340,0.0,0.0,53,-99.99,,,-99.99,WSDL version 423,2013-01-08 05:54:00,
2013-01-08 00:59:00,10.8,-1.6,29.47,NE,45,0.2,2.2,53,-99.99,,,-99.99,WSDL version 423,2013-01-08 05:59:00,
2013-01-08 01:04:00,10.8,-1.6,29.47,North,6,0.0,2.2,53,-99.99,,,-99.99,WSDL version 423,2013-01-08 06:04:00,
2013-01-08 01:09:00,10.9,-1.4,29.47,West,265,0.0,1.3,53,-99.99,,,-99.99,WSDL version 423,2013-01-08 06:09:00,
2013-01-08 01:14:00,10.9,-1.4,29.47,SSE,149,0.0,1.3,53,-99.99,,,-99.99,WSDL version 423,2013-01-08 06:14:00,
2013-01-08 01:19:00,11.1,-1.3,29.47,South,185,0.0,0.0,53,-99.99,,,-99.99,WSDL version 423,2013-01-08 06:19:00,
2013-01-08 01:29:00,11.1,-1.3,29.47,SW,218,0.0,1.3,53,-99.99,,,-99.99,WSDL version 423,2013-01-08 06:29:00,
2013-01-08 01:34:00,11.3,-1.1,29.47,West,270,0.0,0.0,53,-99.99,,,-99.99,WSDL version 423,2013-01-08 06:34:00,
2013-01-08 01:44:00,11.4,-1.0,29.47,SE,135,0.0,1.3,53,-99.99,,,-99.99,WSDL version 423,2013-01-08 06:44:00,
2013-01-08 01:49:00,11.6,-0.8,29.47,West,278,0.0,0.0,53,-99.99,,,-99.99,WSDL version 423,2013-01-08 06:49:00,
2013-01-08 01:54:00,11.7,-0.7,29.47,WNW,300,0.0,0.0,53,-99.99,,,-99.99,WSDL version 423,2013-01-08 06:54:00,
2013-01-08 01:59:00,11.9,-0.6,29.47,North,352,0.0,0.0,53,-99.99,,,-99.99,WSDL version 423,2013-01-08 06:59:00,
2013-01-08 02:04:00,12.1,-0.3,29.47,West,278,0.0,0.0,53,-99.99,,,-99.99,WSDL version 423,2013-01-08 07:04:00,
2013-01-08 02:09:00,12.3,-0.2,29.47,North,354,0.0,0.0,53,-99.99,,,-99.99,WSDL version 423,2013-01-08 07:09:00,
2013-01-08 02:14:00,12.5,0.1,29.47,NNW,340,0.0,0.0,53,-99.99,,,-99.99,WSDL version 423,2013-01-08 07:14:00,
2013-01-08 02:19:00,12.8,0.4,29.47,NNE,25,0.6,2.9,53,-99.99,,,-99.99,WSDL version 423,2013-01-08 07:19:00,
2013-01-08 02:24:00,13.4,0.9,29.47,North,357,0.4,2.9,53,-99.99,,,-99.99,WSDL version 423,2013-01-08 07:24:00,
2013-01-08 02:29:00,13.8,3.2,29.47,North,360,0.0,1.6,87,-99.99,,,-99.99,WSDL version 423,2013-01-08 07:29:00,
2013-01-08 02:34:00,14.3,11.6,29.47,NNE,25,0.0,1.3,88,-99.99,,,-99.99,WSDL version 423,2013-01-08 07:34:00,
2013-01-08 02:39:00,15.1,12.7,29.47,NNE,33,0.0,2.5,90,-99.99,,,-99.99,WSDL version 423,2013-01-08 07:39:00,
2013-01-08 02:44:00,15.7,13.7,29.47,ESE,118,0.3,2.7,91,-99.99,,,-99.99,WSDL version 423,2013-01-08 07:44:00,
2013-01-08 02:49:00,16.6,14.8,29.47,South,183,0.0,2.7,92,-99.99,,,-99.99,WSDL version 423,2013-01-08 07:49:00,
2013-01-08 02:54:00,17.6,16.1,29.44,SSW,200,1.4,9.4,93,-99.99,,,-99.99,WSDL version 423,2013-01-08 07:54:00,
2013-01-08 02:59:00,18.4,17.2,29.44,SSW,195,0.0,9.4,94,-99.99,,,-99.99,WSDL version 423,2013-01-08 07:59:00,
2013-01-08 03:04:00,19.2,18.2,29.44,South,175,0.0,2.2,96,-99.99,,,-99.99,WSDL version 423,2013-01-08 08:04:00,
2013-01-08 03:09:00,20.2,19.6,29.44,WSW,239,0.0,2.2,98,-99.99,,,-99.99,WSDL version 423,2013-01-08 08:09:00,
2013-01-08 03:14:00,21.1,20.9,29.44,South,190,0.2,4.7,100,-99.99,,,-99.99,WSDL version 423,2013-01-08 08:14:00,
2013-01-08 03:19:00,21.9,21.9,29.44,NW,323,0.0,4.7,100,-99.99,,,-99.99,WSDL version 423,2013-01-08 08:19:00,
2013-01-08 03:24:00,22.7,22.7,29.44,SSE,163,0.8,2.9,100,-99.99,,,-99.99,WSDL version 423,2013-01-08 08:24:00,
2013-01-08 03:29:00,23.3,23.3,29.44,South,175,0.8,3.8,100,-99.99,,,-99.99,WSDL version 423,2013-01-08 08:29:00,
2013-01-08 03:34:00,23.6,23.6,29.44,South,191,0.0,3.8,100,-99.99,,,-99.99,WSDL version 423,2013-01-08 08:34:00,
2013-01-08 03:39:00,24.1,24.1,29.44,South,174,0.4,5.8,100,-99.99,,,-99.99,WSDL version 423,2013-01-08 08:39:00,
2013-01-08 03:44:00,24.4,24.4,29.44,SSW,203,0.0,5.8,100,-99.99,,,-99.99,WSDL version 423,2013-01-08 08:44:00,
2013-01-08 03:49:00,24.7,24.7,29.44,SSE,160,0.0,1.3,100,-99.99,,,-99.99,WSDL version 423,2013-01-08 08:49:00,
2013-01-08 03:54:00,25.0,25.0,29.44,SSW,213,0.3,3.4,100,-99.99,,,-99.99,WSDL version 423,2013-01-08 08:54:00,
2013-01-08 03:59:00,25.3,25.3,29.44,SSE,166,0.8,6.3,100,-99.99,,,-99.99,WSDL version 423,2013-01-08 08:59:00,
2013-01-08 04:04:00,25.6,25.6,29.44,West,270,0.0,6.3,100,-99.99,,,-99.99,WSDL version 423,2013-01-08 09:04:00,
2013-01-08 04:09:00,25.7,25.7,29.44,West,278,0.0,2.7,100,-99.99,,,-99.99,WSDL version 423,2013-01-08 09:09:00,
2013-01-08 04:14:00,25.9,25.9,29.44,SSW,208,0.5,2.9,100,-99.99,,,-99.99,WSDL version 423,2013-01-08 09:14:00,
2013-01-08 04:19:00,26.0,25.9,29.44,WSW,242,0.0,2.9,99,-99.99,,,-99.99,WSDL version 423,2013-01-08 09:19:00,
2013-01-08 04:24:00,26.1,25.9,29.44,SSW,197,0.6,2.5,99,-99.99,,,-99.99,WSDL version 423,2013-01-08 09:24:00,
2013-01-08 04:29:00,26.2,26.0,29.44,WSW,250,0.0,2.5,99,-99.99,,,-99.99,WSDL version 423,2013-01-08 09:29:00,
2013-01-08 04:34:00,26.4,26.2,29.44,SE,135,0.0,2.2,99,-99.99,,,-99.99,WSDL version 423,2013-01-08 09:34:00,
2013-01-08 04:39:00,26.5,26.0,29.44,NE,48,0.0,2.2,98,-99.99,,,-99.99,WSDL version 423,2013-01-08 09:39:00,
2013-01-08 04:44:00,26.6,26.1,29.44,WSW,256,0.9,3.6,98,-99.99,,,-99.99,WSDL version 423,2013-01-08 09:44:00,
2013-01-08 04:49:00,26.6,26.1,29.44,South,178,0.4,3.6,98,-99.99,,,-99.99,WSDL version 423,2013-01-08 09:49:00,
2013-01-08 04:54:00,26.8,26.1,29.44,SW,228,0.7,2.7,97,-99.99,,,-99.99,WSDL version 423,2013-01-08 09:54:00,
2013-01-08 04:59:00,26.8,26.1,29.44,SSW,195,0.0,2.2,97,-99.99,,,-99.99,WSDL version 423,2013-01-08 09:59:00,
2013-01-08 05:04:00,27.0,26.2,29.44,SSE,163,0.3,2.5,97,-99.99,,,-99.99,WSDL version 423,2013-01-08 10:04:00,
2013-01-08 05:09:00,27.0,26.1,29.44,SSW,200,0.0,2.9,96,-99.99,,,-99.99,WSDL version 423,2013-01-08 10:09:00,
2013-01-08 05:14:00,27.0,26.0,29.44,SSE,160,0.6,2.9,96,-99.99,,,-99.99,WSDL version 423,2013-01-08 10:14:00,
2013-01-08 05:19:00,27.0,26.1,29.44,SSW,197,0.3,4.3,96,-99.99,,,-99.99,WSDL version 423,2013-01-08 10:19:00,
2013-01-08 05:24:00,27.1,26.1,29.44,South,173,0.2,4.3,96,-99.99,,,-99.99,WSDL version 423,2013-01-08 10:24:00,
2013-01-08 05:29:00,27.1,26.2,29.44,SSW,197,0.9,2.9,96,-99.99,,,-99.99,WSDL version 423,2013-01-08 10:29:00,
2013-01-08 05:34:00,27.2,26.2,29.44,South,169,1.3,3.1,96,-99.99,,,-99.99,WSDL version 423,2013-01-08 10:34:00,
2013-01-08 05:39:00,27.3,26.3,29.44,South,183,0.2,3.1,96,-99.99,,,-99.99,WSDL version 423,2013-01-08 10:39:00,
2013-01-08 05:44:00,27.3,26.3,29.44,South,177,0.3,5.6,96,-99.99,,,-99.99,WSDL version 423,2013-01-08 10:44:00,
2013-01-08 05:49:00,27.3,26.3,29.44,SW,223,0.0,5.6,96,-99.99,,,-99.99,WSDL version 423,2013-01-08 10:49:00,
2013-01-08 05:54:00,27.3,26.3,29.47,South,177,0.3,2.5,95,-99.99,,,-99.99,WSDL version 423,2013-01-08 10:54:00,
2013-01-08 06:04:00,27.3,26.1,29.47,South,186,0.6,3.1,94,-99.99,,,-99.99,WSDL version 423,2013-01-08 11:04:00,
2013-01-08 06:09:00,27.3,26.1,29.47,South,175,0.0,3.1,94,-99.99,,,-99.99,WSDL version 423,2013-01-08 11:09:00,
2013-01-08 06:14:00,27.3,26.1,29.47,NNE,28,0.7,3.1,94,-99.99,,,-99.99,WSDL version 423,2013-01-08 11:14:00,
2013-01-08 06:19:00,27.3,26.2,29.47,South,186,0.5,3.1,96,-99.99,,,-99.99,WSDL version 423,2013-01-08 11:19:00,
2013-01-08 06:24:00,-999.0,-99.9,29.47,SSE,149,0.0,2.7,-999,-99.99,,,-99.99,WSDL version 423,2013-01-08 11:24:00,
2013-01-08 06:29:00,27.5,26.2,29.47,SSW,197,0.8,4.7,94,-99.99,,,-99.99,WSDL version 423,2013-01-08 11:29:00,
2013-01-08 06:34:00,27.5,26.3,29.47,South,190,0.3,4.9,94,-99.99,,,-99.99,WSDL version 423,2013-01-08 11:34:00,
2013-01-08 06:39:00,27.5,26.3,29.47,SW,214,0.0,4.9,94,-99.99,,,-99.99,WSDL version 423,2013-01-08 11:39:00,
2013-01-08 06:44:00,27.5,26.3,29.47,SSW,193,0.0,2.5,94,-99.99,,,-99.99,WSDL version 423,2013-01-08 11:44:00,
2013-01-08 06:49:00,27.5,26.3,29.47,South,180,0.3,2.9,94,-99.99,,,-99.99,WSDL version 423,2013-01-08 11:49:00,
2013-01-08 06:54:00,27.6,26.4,29.47,SE,128,0.0,3.6,94,-99.99,,,-99.99,WSDL version 423,2013-01-08 11:54:00,
2013-01-08 06:59:00,27.7,26.5,29.47,SE,133,0.0,3.6,94,-99.99,,,-99.99,WSDL version 423,2013-01-08 11:59:00,
2013-01-08 07:04:00,27.7,26.5,29.47,SW,222,0.5,2.9,94,-99.99,,,-99.99,WSDL version 423,2013-01-08 12:04:00,
2013-01-08 07:09:00,27.7,26.5,29.47,SSW,203,0.0,2.9,94,-99.99,,,-99.99,WSDL version 423,2013-01-08 12:09:00,
2013-01-08 07:14:00,27.7,26.5,29.47,South,177,1.3,3.8,94,-99.99,,,-99.99,WSDL version 423,2013-01-08 12:14:00,
2013-01-08 07:19:00,27.8,26.5,29.47,SW,233,0.0,3.8,94,-99.99,,,-99.99,WSDL version 423,2013-01-08 12:19:00,
2013-01-08 07:24:00,27.9,26.6,29.47,South,180,0.0,2.5,94,-99.99,,,-99.99,WSDL version 423,2013-01-08 12:24:00,
2013-01-08 07:29:00,27.9,26.6,29.47,SE,128,0.0,2.0,94,-99.99,,,-99.99,WSDL version 423,2013-01-08 12:29:00,
2013-01-08 07:34:00,27.9,26.6,29.47,South,175,0.0,2.0,94,-99.99,,,-99.99,WSDL version 423,2013-01-08 12:34:00,
2013-01-08 07:39:00,27.9,26.6,29.50,South,177,0.0,1.6,94,-99.99,,,-99.99,WSDL version 423,2013-01-08 12:39:00,
2013-01-08 07:44:00,27.9,26.6,29.50,South,183,0.0,1.6,94,-99.99,,,-99.99,WSDL version 423,2013-01-08 12:44:00,
2013-01-08 07:49:00,27.9,26.6,29.50,SSE,163,0.0,2.5,94,-99.99,,,-99.99,WSDL version 423,2013-01-08 12:49:00,
2013-01-08 07:54:00,28.0,26.7,29.50,South,180,0.3,3.4,94,-99.99,,,-99.99,WSDL version 423,2013-01-08 12:54:00,
2013-01-08 07:59:00,28.0,26.8,29.50,SSE,166,0.0,3.4,94,-99.99,,,-99.99,WSDL version 423,2013-01-08 12:59:00,
2013-01-08 08:04:00,28.1,27.0,29.50,South,169,0.7,3.6,96,-99.99,,,-99.99,WSDL version 423,2013-01-08 13:04:00,
2013-01-08 08:09:00,28.2,27.2,29.53,South,183,0.0,3.6,96,-99.99,,,-99.99,WSDL version 423,2013-01-08 13:09:00,
2013-01-08 08:14:00,28.2,27.2,29.53,South,174,0.7,2.9,96,-99.99,,,-99.99,WSDL version 423,2013-01-08 13:14:00,
2013-01-08 08:19:00,28.4,27.4,29.53,SSW,203,0.0,2.9,96,-99.99,,,-99.99,WSDL version 423,2013-01-08 13:19:00,
2013-01-08 08:24:00,28.4,27.4,29.53,South,177,0.0,2.5,96,-99.99,,,-99.99,WSDL version 423,2013-01-08 13:24:00,
2013-01-08 08:29:00,28.5,27.4,29.53,South,178,0.0,3.4,94,-99.99,,,-99.99,WSDL version 423,2013-01-08 13:29:00,
2013-01-08 08:34:00,28.6,27.4,29.53,SSW,203,0.0,3.4,94,-99.99,,,-99.99,WSDL version 423,2013-01-08 13:34:00,
2013-01-08 08:39:00,28.6,27.4,29.53,South,172,0.0,4.0,94,-99.99,,,-99.99,WSDL version 423,2013-01-08 13:39:00,
2013-01-08 08:44:00,28.7,27.5,29.53,SSW,203,0.0,4.0,94,-99.99,,,-99.99,WSDL version 423,2013-01-08 13:44:00,
2013-01-08 08:49:00,28.8,27.6,29.53,SW,225,0.0,1.6,94,-99.99,,,-99.99,WSDL version 423,2013-01-08 13:49:00,
2013-01-08 08:54:00,28.9,27.7,29.53,SSE,158,0.0,2.5,94,-99.99,,,-99.99,WSDL version 423,2013-01-08 13:54:00,
2013-01-08 08:59:00,29.1,27.9,29.53,SSW,199,0.0,2.5,94,-99.99,,,-99.99,WSDL version 423,2013-01-08 13:59:00,
2013-01-08 09:04:00,29.3,28.1,29.53,SSE,165,0.0,0.9,94,-99.99,,,-99.99,WSDL version 423,2013-01-08 14:04:00,
2013-01-08 09:09:00,29.5,28.3,29.53,South,191,0.0,0.9,94,-99.99,,,-99.99,WSDL version 423,2013-01-08 14:09:00,
2013-01-08 09:14:00,29.7,28.4,29.53,WSW,244,0.0,2.0,94,-99.99,,,-99.99,WSDL version 423,2013-01-08 14:14:00,
2013-01-08 09:19:00,29.8,28.5,29.53,SSW,200,0.0,3.6,93,-99.99,,,-99.99,WSDL version 423,2013-01-08 14:19:00,
2013-01-08 09:24:00,30.0,28.5,29.53,SW,225,0.0,3.6,93,-99.99,,,-99.99,WSDL version 423,2013-01-08 14:24:00,
2013-01-08 09:29:00,30.2,28.7,29.53,South,178,0.5,2.7,93,-99.99,,,-99.99,WSDL version 423,2013-01-08 14:29:00,
2013-01-08 09:34:00,30.4,28.7,29.53,West,259,0.0,2.7,92,-99.99,,,-99.99,WSDL version 423,2013-01-08 14:34:00,
2013-01-08 09:39:00,30.6,28.9,29.53,SSW,195,0.0,2.0,92,-99.99,,,-99.99,WSDL version 423,2013-01-08 14:39:00,
2013-01-08 09:44:00,30.7,28.9,29.53,South,173,0.0,2.2,91,-99.99,,,-99.99,WSDL version 423,2013-01-08 14:44:00,
2013-01-08 09:49:00,30.8,28.8,29.53,SSW,198,0.0,2.2,91,-99.99,,,-99.99,WSDL version 423,2013-01-08 14:49:00,
2013-01-08 09:54:00,31.0,29.0,29.56,South,183,0.0,2.0,91,-99.99,,,-99.99,WSDL version 423,2013-01-08 14:54:00,
2013-01-08 09:59:00,31.1,28.9,29.56,SSW,205,0.8,4.3,90,-99.99,,,-99.99,WSDL version 423,2013-01-08 14:59:00,
2013-01-08 10:04:00,31.1,28.8,29.56,South,175,0.0,4.3,90,-99.99,,,-99.99,WSDL version 423,2013-01-08 15:04:00,
2013-01-08 10:09:00,31.1,28.8,29.56,SW,215,0.0,0.0,90,-99.99,,,-99.99,WSDL version 423,2013-01-08 15:09:00,
2013-01-08 10:14:00,31.3,29.0,29.56,SSW,195,0.2,3.1,90,-99.99,,,-99.99,WSDL version 423,2013-01-08 15:14:00,
2013-01-08 10:19:00,31.5,29.2,29.56,SSW,198,0.0,3.1,90,-99.99,,,-99.99,WSDL version 423,2013-01-08 15:19:00,
2013-01-08 10:24:00,31.7,29.4,29.56,SW,219,0.0,0.0,90,-99.99,,,-99.99,WSDL version 423,2013-01-08 15:24:00,
2013-01-08 10:29:00,32.1,29.6,29.56,SSW,208,0.0,2.0,90,-99.99,,,-99.99,WSDL version 423,2013-01-08 15:29:00,
2013-01-08 10:34:00,32.2,29.4,29.56,South,180,0.0,2.0,89,-99.99,,,-99.99,WSDL version 423,2013-01-08 15:34:00,
2013-01-08 10:39:00,32.4,29.5,29.56,South,170,0.2,2.2,89,-99.99,,,-99.99,WSDL version 423,2013-01-08 15:39:00,
2013-01-08 10:44:00,32.6,29.7,29.56,South,191,0.0,2.2,89,-99.99,,,-99.99,WSDL version 423,2013-01-08 15:44:00,
2013-01-08 10:49:00,33.1,30.2,29.56,SSW,195,0.0,1.1,89,-99.99,,,-99.99,WSDL version 423,2013-01-08 15:49:00,
2013-01-08 10:54:00,33.4,30.4,29.56,South,183,0.0,0.0,88,-99.99,,,-99.99,WSDL version 423,2013-01-08 15:54:00,
2013-01-08 10:59:00,33.8,30.4,29.56,South,174,0.9,3.6,87,-99.99,,,-99.99,WSDL version 423,2013-01-08 15:59:00,
2013-01-08 11:04:00,34.1,30.4,29.56,South,170,0.2,3.6,86,-99.99,,,-99.99,WSDL version 423,2013-01-08 16:04:00,
2013-01-08 11:09:00,34.4,30.3,29.56,SSW,197,1.1,3.6,84,-99.99,,,-99.99,WSDL version 423,2013-01-08 16:09:00,
2013-01-08 11:14:00,34.8,30.3,29.56,SSW,200,0.0,3.6,83,-99.99,,,-99.99,WSDL version 423,2013-01-08 16:14:00,
2013-01-08 11:19:00,35.0,30.3,29.56,South,170,0.4,2.2,82,-99.99,,,-99.99,WSDL version 423,2013-01-08 16:19:00,
2013-01-08 11:24:00,35.2,30.2,29.56,South,186,0.0,2.0,81,-99.99,,,-99.99,WSDL version 423,2013-01-08 16:24:00,
2013-01-08 11:29:00,35.7,30.1,29.56,SSW,193,0.0,1.1,79,-99.99,,,-99.99,WSDL version 423,2013-01-08 16:29:00,
2013-01-08 11:34:00,35.9,29.9,29.56,South,174,0.2,1.6,78,-99.99,,,-99.99,WSDL version 423,2013-01-08 16:34:00,
2013-01-08 11:39:00,36.2,30.1,29.56,South,169,0.3,2.0,78,-99.99,,,-99.99,WSDL version 423,2013-01-08 16:39:00,
2013-01-08 11:44:00,36.4,30.1,29.56,South,177,0.0,2.0,77,-99.99,,,-99.99,WSDL version 423,2013-01-08 16:44:00,
2013-01-08 11:49:00,36.7,30.1,29.56,WSW,250,0.2,2.0,76,-99.99,,,-99.99,WSDL version 423,2013-01-08 16:49:00,
2013-01-08 11:54:00,37.4,30.8,29.56,South,191,0.0,2.0,76,-99.99,,,-99.99,WSDL version 423,2013-01-08 16:54:00,
2013-01-08 11:59:00,37.8,30.7,29.56,South,174,0.1,1.6,75,-99.99,,,-99.99,WSDL version 423,2013-01-08 16:59:00,
2013-01-08 12:04:00,38.8,31.6,29.56,WSW,240,0.0,1.3,75,-99.99,,,-99.99,WSDL version 423,2013-01-08 17:04:00,
2013-01-08 12:09:00,39.6,31.7,29.56,SSW,197,0.0,0.9,72,-99.99,,,-99.99,WSDL version 423,2013-01-08 17:09:00,
2013-01-08 12:14:00,39.6,31.2,29.56,South,180,0.0,0.0,71,-99.99,,,-99.99,WSDL version 423,2013-01-08 17:14:00,
2013-01-08 12:19:00,39.7,30.6,29.56,SSW,211,0.0,0.0,69,-99.99,,,-99.99,WSDL version 423,2013-01-08 17:19:00,
2013-01-08 12:24:00,40.2,31.2,29.56,SSW,193,0.0,0.0,70,-99.99,,,-99.99,WSDL version 423,2013-01-08 17:24:00,
2013-01-08 12:29:00,40.2,30.3,29.56,South,191,1.2,4.0,66,-99.99,,,-99.99,WSDL version 423,2013-01-08 17:29:00,
2013-01-08 12:34:00,39.0,28.6,29.56,SW,217,0.4,6.3,66,-99.99,,,-99.99,WSDL version 423,2013-01-08 17:34:00,
2013-01-08 12:39:00,38.7,28.4,29.56,South,180,0.2,6.3,66,-99.99,,,-99.99,WSDL version 423,2013-01-08 17:39:00,
2013-01-08 12:44:00,38.8,29.0,29.56,South,191,0.0,3.1,68,-99.99,,,-99.99,WSDL version 423,2013-01-08 17:44:00,
2013-01-08 12:49:00,38.5,28.6,29.56,SSW,198,0.5,3.1,67,-99.99,,,-99.99,WSDL version 423,2013-01-08 17:49:00,
2013-01-08 12:54:00,38.7,29.0,29.56,SW,233,0.0,1.6,68,-99.99,,,-99.99,WSDL version 423,2013-01-08 17:54:00,
2013-01-08 12:59:00,38.5,28.7,29.56,SSW,213,1.0,2.9,67,-99.99,,,-99.99,WSDL version 423,2013-01-08 17:59:00,
2013-01-08 13:04:00,38.0,27.9,29.56,SSW,193,0.3,2.9,67,-99.99,,,-99.99,WSDL version 423,2013-01-08 18:04:00,
2013-01-08 13:09:00,37.9,27.9,29.56,South,183,0.4,2.7,67,-99.99,,,-99.99,WSDL version 423,2013-01-08 18:09:00,
2013-01-08 13:14:00,37.7,27.8,29.56,SSE,158,1.3,3.6,68,-99.99,,,-99.99,WSDL version 423,2013-01-08 18:14:00,
2013-01-08 13:19:00,37.6,28.0,29.56,SSW,211,1.1,3.6,68,-99.99,,,-99.99,WSDL version 423,2013-01-08 18:19:00,
2013-01-08 13:24:00,37.3,27.8,29.56,South,183,1.1,2.9,69,-99.99,,,-99.99,WSDL version 423,2013-01-08 18:24:00,
2013-01-08 13:29:00,36.9,27.7,29.56,SSW,194,1.3,2.9,69,-99.99,,,-99.99,WSDL version 423,2013-01-08 18:29:00,
2013-01-08 13:34:00,36.6,27.4,29.56,South,178,1.3,2.7,69,-99.99,,,-99.99,WSDL version 423,2013-01-08 18:34:00,
2013-01-08 13:39:00,36.1,27.1,29.56,SSE,161,1.2,2.7,70,-99.99,,,-99.99,WSDL version 423,2013-01-08 18:39:00,
2013-01-08 13:44:00,35.5,26.9,29.56,SSW,193,1.0,2.9,71,-99.99,,,-99.99,WSDL version 423,2013-01-08 18:44:00,
2013-01-08 13:49:00,34.9,26.6,29.56,South,183,0.2,2.9,72,-99.99,,,-99.99,WSDL version 423,2013-01-08 18:49:00,
2013-01-08 13:54:00,34.8,26.8,29.56,South,188,0.0,2.0,73,-99.99,,,-99.99,WSDL version 423,2013-01-08 18:54:00,
2013-01-08 13:59:00,35.0,27.4,29.56,SSE,155,0.0,2.2,74,-99.99,,,-99.99,WSDL version 423,2013-01-08 18:59:00,
2013-01-08 14:04:00,35.4,27.9,29.56,SSE,166,0.0,3.6,74,-99.99,,,-99.99,WSDL version 423,2013-01-08 19:04:00,
2013-01-08 14:09:00,36.0,28.7,29.59,SSW,208,0.9,3.6,74,-99.99,,,-99.99,WSDL version 423,2013-01-08 19:09:00,
2013-01-08 14:14:00,36.3,28.8,29.59,South,183,0.8,3.1,74,-99.99,,,-99.99,WSDL version 423,2013-01-08 19:14:00,
2013-01-08 14:19:00,36.1,28.3,29.59,SSE,168,0.2,2.7,73,-99.99,,,-99.99,WSDL version 423,2013-01-08 19:19:00,
2013-01-08 14:24:00,36.2,28.5,29.59,SSE,152,1.0,2.5,73,-99.99,,,-99.99,WSDL version 423,2013-01-08 19:24:00,
2013-01-08 14:29:00,36.3,28.6,29.59,South,170,0.2,2.2,73,-99.99,,,-99.99,WSDL version 423,2013-01-08 19:29:00,
2013-01-08 14:34:00,36.4,28.6,29.59,SSW,197,0.4,2.2,73,-99.99,,,-99.99,WSDL version 423,2013-01-08 19:34:00,
2013-01-08 14:39:00,36.2,28.4,29.59,SSE,149,1.2,3.6,73,-99.99,,,-99.99,WSDL version 423,2013-01-08 19:39:00,
2013-01-08 14:44:00,35.8,28.0,29.59,ESE,118,0.2,3.6,73,-99.99,,,-99.99,WSDL version 423,2013-01-08 19:44:00,
2013-01-08 14:49:00,35.5,27.9,29.59,South,186,1.1,3.4,74,-99.99,,,-99.99,WSDL version 423,2013-01-08 19:49:00,
2013-01-08 14:54:00,35.1,27.7,29.62,South,188,1.2,3.4,74,-99.99,,,-99.99,WSDL version 423,2013-01-08 19:54:00,
2013-01-08 14:59:00,35.1,27.8,29.62,SE,125,0.2,2.7,75,-99.99,,,-99.99,WSDL version 423,2013-01-08 19:59:00,
2013-01-08 15:04:00,35.2,28.2,29.62,South,188,0.6,1.6,76,-99.99,,,-99.99,WSDL version 423,2013-01-08 20:04:00,
2013-01-08 15:09:00,35.2,28.4,29.62,SSE,153,0.0,1.6,76,-99.99,,,-99.99,WSDL version 423,2013-01-08 20:09:00,
2013-01-08 15:14:00,35.2,28.4,29.62,South,183,0.0,2.2,76,-99.99,,,-99.99,WSDL version 423,2013-01-08 20:14:00,
2013-01-08 15:19:00,35.1,28.3,29.62,SW,219,0.0,2.2,76,-99.99,,,-99.99,WSDL version 423,2013-01-08 20:19:00,
2013-01-08 15:24:00,34.9,28.1,29.62,SE,138,0.2,1.3,76,-99.99,,,-99.99,WSDL version 423,2013-01-08 20:24:00,
2013-01-08 15:29:00,34.6,27.8,29.62,SW,228,0.4,1.6,76,-99.99,,,-99.99,WSDL version 423,2013-01-08 20:29:00,
2013-01-08 15:34:00,34.3,27.7,29.62,SSE,152,0.0,1.6,77,-99.99,,,-99.99,WSDL version 423,2013-01-08 20:34:00,
2013-01-08 15:39:00,34.0,27.3,29.62,South,174,0.0,0.0,77,-99.99,,,-99.99,WSDL version 423,2013-01-08 20:39:00,
2013-01-08 15:44:00,33.8,27.3,29.62,South,190,0.0,1.3,77,-99.99,,,-99.99,WSDL version 423,2013-01-08 20:44:00,
2013-01-08 15:49:00,33.5,27.4,29.62,ESE,113,0.0,1.6,78,-99.99,,,-99.99,WSDL version 423,2013-01-08 20:49:00,
2013-01-08 15:54:00,33.2,27.1,29.62,WNW,295,0.0,1.6,78,-99.99,,,-99.99,WSDL version 423,2013-01-08 20:54:00,
2013-01-08 15:59:00,33.1,27.1,29.62,SW,222,0.0,0.9,79,-99.99,,,-99.99,WSDL version 423,2013-01-08 20:59:00,
2013-01-08 16:04:00,33.0,27.2,29.62,SE,138,0.0,0.0,79,-99.99,,,-99.99,WSDL version 423,2013-01-08 21:04:00,
2013-01-08 16:09:00,33.1,27.5,29.65,SSE,158,0.0,1.1,80,-99.99,,,-99.99,WSDL version 423,2013-01-08 21:09:00,
2013-01-08 16:14:00,32.9,27.4,29.65,South,174,0.0,2.0,80,-99.99,,,-99.99,WSDL version 423,2013-01-08 21:14:00,
2013-01-08 16:19:00,32.8,27.5,29.65,South,180,0.0,2.0,80,-99.99,,,-99.99,WSDL version 423,2013-01-08 21:19:00,
2013-01-08 16:24:00,32.3,26.9,29.62,SSE,163,0.3,2.9,80,-99.99,,,-99.99,WSDL version 423,2013-01-08 21:24:00,
2013-01-08 16:29:00,31.7,26.9,29.62,South,170,0.0,2.9,80,-99.99,,,-99.99,WSDL version 423,2013-01-08 21:29:00,
2013-01-08 16:34:00,31.1,26.3,29.62,South,183,0.2,2.7,80,-99.99,,,-99.99,WSDL version 423,2013-01-08 21:34:00,
2013-01-08 16:39:00,30.6,25.8,29.65,South,183,0.0,2.7,81,-99.99,,,-99.99,WSDL version 423,2013-01-08 21:39:00,
2013-01-08 16:44:00,30.2,26.0,29.65,South,178,0.0,0.0,82,-99.99,,,-99.99,WSDL version 423,2013-01-08 21:44:00,
2013-01-08 16:49:00,30.1,26.1,29.65,SSW,200,0.0,0.9,83,-99.99,,,-99.99,WSDL version 423,2013-01-08 21:49:00,
2013-01-08 16:54:00,29.9,26.3,29.65,SSW,203,0.0,0.9,84,-99.99,,,-99.99,WSDL version 423,2013-01-08 21:54:00,
2013-01-08 16:59:00,29.7,26.1,29.65,SSE,163,0.2,1.3,86,-99.99,,,-99.99,WSDL version 423,2013-01-08 21:59:00,
2013-01-08 17:04:00,29.7,26.6,29.65,SSE,154,1.4,2.9,88,-99.99,,,-99.99,WSDL version 423,2013-01-08 22:04:00,
2013-01-08 17:09:00,29.8,27.0,29.65,SSW,196,0.6,3.1,88,-99.99,,,-99.99,WSDL version 423,2013-01-08 22:09:00,
2013-01-08 17:14:00,29.5,26.7,29.65,SSW,195,0.0,3.1,88,-99.99,,,-99.99,WSDL version 423,2013-01-08 22:14:00,
2013-01-08 17:19:00,29.2,26.4,29.65,South,190,0.0,0.9,88,-99.99,,,-99.99,WSDL version 423,2013-01-08 22:19:00,
2013-01-08 17:24:00,28.8,25.9,29.65,SSW,193,0.0,0.0,88,-99.99,,,-99.99,WSDL version 423,2013-01-08 22:24:00,
2013-01-08 17:29:00,28.5,25.7,29.65,SW,217,0.0,0.0,88,-99.99,,,-99.99,WSDL version 423,2013-01-08 22:29:00,
2013-01-08 17:34:00,28.2,25.5,29.65,South,180,0.0,1.3,89,-99.99,,,-99.99,WSDL version 423,2013-01-08 22:34:00,
2013-01-08 17:39:00,28.5,26.1,29.65,South,188,0.2,4.0,90,-99.99,,,-99.99,WSDL version 423,2013-01-08 22:39:00,
2013-01-08 17:44:00,28.4,26.1,29.65,South,183,0.2,4.0,90,-99.99,,,-99.99,WSDL version 423,2013-01-08 22:44:00,
2013-01-08 17:49:00,28.3,26.3,29.65,SSW,193,0.0,4.0,91,-99.99,,,-99.99,WSDL version 423,2013-01-08 22:49:00,
2013-01-08 17:54:00,28.0,26.0,29.68,SSW,211,0.0,4.0,91,-99.99,,,-99.99,WSDL version 423,2013-01-08 22:54:00,
2013-01-08 17:59:00,27.8,25.6,29.68,SW,236,0.0,0.0,90,-99.99,,,-99.99,WSDL version 423,2013-01-08 22:59:00,
2013-01-08 18:04:00,27.4,25.2,29.68,SW,228,0.0,0.0,90,-99.99,,,-99.99,WSDL version 423,2013-01-08 23:04:00,
2013-01-08 18:09:00,27.0,24.8,29.68,SSW,211,0.0,0.0,90,-99.99,,,-99.99,WSDL version 423,2013-01-08 23:09:00,
2013-01-08 18:14:00,26.9,24.6,29.68,SSW,193,0.0,0.0,90,-99.99,,,-99.99,WSDL version 423,2013-01-08 23:14:00,
2013-01-08 18:24:00,26.4,24.4,29.68,West,270,0.0,0.0,91,-99.99,,,-99.99,WSDL version 423,2013-01-08 23:24:00,
2013-01-08 18:29:00,26.2,24.2,29.68,North,6,0.0,0.0,91,-99.99,,,-99.99,WSDL version 423,2013-01-08 23:29:00,
2013-01-08 18:34:00,26.5,24.5,29.68,North,360,0.0,0.0,91,-99.99,,,-99.99,WSDL version 423,2013-01-08 23:34:00,
2013-01-08 18:39:00,26.8,25.0,29.68,North,360,0.0,0.0,92,-99.99,,,-99.99,WSDL version 423,2013-01-08 23:39:00,
2013-01-08 18:44:00,27.0,25.4,29.68,ENE,68,0.0,0.0,93,-99.99,,,-99.99,WSDL version 423,2013-01-08 23:44:00,
2013-01-08 18:49:00,27.5,26.4,29.68,SSE,153,0.0,0.0,96,-99.99,,,-99.99,WSDL version 423,2013-01-08 23:49:00,
2013-01-08 18:54:00,27.9,26.9,29.71,SSW,199,0.0,0.0,96,-99.99,,,-99.99,WSDL version 423,2013-01-08 23:54:00,
2013-01-08 19:04:00,28.1,27.3,29.71,SSW,203,0.0,0.0,97,-99.99,,,-99.99,WSDL version 423,2013-01-09 00:04:00,
2013-01-08 19:09:00,28.2,27.5,29.71,South,188,0.0,0.0,97,-99.99,,,-99.99,WSDL version 423,2013-01-09 00:09:00,
2013-01-08 19:14:00,28.3,27.6,29.71,SSW,195,0.0,0.0,97,-99.99,,,-99.99,WSDL version 423,2013-01-09 00:14:00,
2013-01-08 19:19:00,28.6,27.8,29.71,South,188,0.0,0.0,97,-99.99,,,-99.99,WSDL version 423,2013-01-09 00:19:00,
2013-01-08 19:24:00,28.9,28.1,29.71,SW,218,0.0,0.0,97,-99.99,,,-99.99,WSDL version 423,2013-01-09 00:24:00,
2013-01-08 19:29:00,29.1,28.4,29.71,South,172,0.0,0.0,97,-99.99,,,-99.99,WSDL version 423,2013-01-09 00:29:00,
2013-01-08 19:34:00,29.3,28.5,29.71,SW,217,0.0,0.0,97,-99.99,,,-99.99,WSDL version 423,2013-01-09 00:34:00,
2013-01-08 19:39:00,29.4,28.6,29.71,South,170,0.0,0.0,97,-99.99,,,-99.99,WSDL version 423,2013-01-09 00:39:00,
2013-01-08 19:44:00,29.5,28.7,29.71,South,186,0.0,0.0,97,-99.99,,,-99.99,WSDL version 423,2013-01-09 00:44:00,
2013-01-08 19:49:00,29.5,28.7,29.71,South,183,0.0,0.0,97,-99.99,,,-99.99,WSDL version 423,2013-01-09 00:49:00,
2013-01-08 19:54:00,29.5,28.7,29.71,SSW,193,0.0,0.0,97,-99.99,,,-99.99,WSDL version 423,2013-01-09 00:54:00,
2013-01-08 19:59:00,29.5,28.7,29.71,West,263,0.0,0.0,97,-99.99,,,-99.99,WSDL version 423,2013-01-09 00:59:00,
2013-01-08 20:04:00,29.3,28.4,29.71,SSW,194,0.0,0.0,96,-99.99,,,-99.99,WSDL version 423,2013-01-09 01:04:00,
2013-01-08 20:09:00,29.0,28.0,29.71,SSW,200,0.0,0.0,96,-99.99,,,-99.99,WSDL version 423,2013-01-09 01:09:00,
2013-01-08 20:14:00,28.7,27.6,29.71,South,190,0.0,0.0,94,-99.99,,,-99.99,WSDL version 423,2013-01-09 01:14:00,
2013-01-08 20:19:00,28.2,27.0,29.71,SSW,197,0.0,0.0,94,-99.99,,,-99.99,WSDL version 423,2013-01-09 01:19:00,
2013-01-08 20:24:00,27.8,26.3,29.71,SW,236,0.0,0.0,93,-99.99,,,-99.99,WSDL version 423,2013-01-09 01:24:00,
2013-01-08 20:29:00,27.2,25.6,29.71,WSW,248,0.0,0.0,92,-99.99,,,-99.99,WSDL version 423,2013-01-09 01:29:00,
2013-01-08 20:34:00,26.5,24.7,29.71,WSW,248,0.0,0.0,92,-99.99,,,-99.99,WSDL version 423,2013-01-09 01:34:00,
2013-01-08 20:39:00,25.8,24.0,29.71,WSW,248,0.0,0.0,91,-99.99,,,-99.99,WSDL version 423,2013-01-09 01:39:00,
2013-01-08 20:44:00,25.6,23.7,29.71,West,270,0.0,0.0,92,-99.99,,,-99.99,WSDL version 423,2013-01-09 01:44:00,
2013-01-08 20:49:00,25.4,23.7,29.71,NNW,338,0.0,0.0,92,-99.99,,,-99.99,WSDL version 423,2013-01-09 01:49:00,
2013-01-08 20:54:00,25.2,23.5,29.71,North,360,0.0,0.0,92,-99.99,,,-99.99,WSDL version 423,2013-01-09 01:54:00,
2013-01-08 20:59:00,24.8,23.3,29.71,North,360,0.0,0.0,93,-99.99,,,-99.99,WSDL version 423,2013-01-09 01:59:00,
2013-01-08 21:04:00,24.6,23.2,29.71,North,360,0.0,0.0,93,-99.99,,,-99.99,WSDL version 423,2013-01-09 02:04:00,
2013-01-08 21:09:00,24.6,23.3,29.71,NE,45,0.0,0.0,94,-99.99,,,-99.99,WSDL version 423,2013-01-09 02:09:00,
2013-01-08 21:14:00,24.9,24.0,29.71,ESE,105,0.0,0.0,97,-99.99,,,-99.99,WSDL version 423,2013-01-09 02:14:00,
2013-01-08 21:19:00,25.3,24.8,29.71,ESE,113,0.0,0.0,99,-99.99,,,-99.99,WSDL version 423,2013-01-09 02:19:00,
2013-01-08 21:24:00,25.6,25.4,29.71,East,90,0.0,0.0,99,-99.99,,,-99.99,WSDL version 423,2013-01-09 02:24:00,
2013-01-08 21:29:00,25.6,25.3,29.71,ENE,68,0.0,0.0,99,-99.99,,,-99.99,WSDL version 423,2013-01-09 02:29:00,
2013-01-08 21:39:00,25.5,25.3,29.71,SE,135,0.0,0.0,99,-99.99,,,-99.99,WSDL version 423,2013-01-09 02:39:00,
2013-01-08 21:44:00,25.7,25.7,29.71,ESE,113,0.0,0.0,100,-99.99,,,-99.99,WSDL version 423,2013-01-09 02:44:00,
2013-01-08 21:49:00,25.7,25.7,29.71,ESE,113,0.0,0.0,100,-99.99,,,-99.99,WSDL version 423,2013-01-09 02:49:00,
2013-01-08 21:54:00,25.6,25.6,29.71,WSW,248,0.0,0.0,100,-99.99,,,-99.99,WSDL version 423,2013-01-09 02:54:00,
2013-01-08 21:59:00,25.5,25.5,29.71,SSW,203,0.0,0.0,100,-99.99,,,-99.99,WSDL version 423,2013-01-09 02:59:00,
2013-01-08 22:04:00,25.5,25.5,29.71,SSW,194,0.0,0.0,100,-99.99,,,-99.99,WSDL version 423,2013-01-09 03:04:00,
2013-01-08 22:09:00,25.7,25.7,29.71,ESE,110,0.0,0.0,100,-99.99,,,-99.99,WSDL version 423,2013-01-09 03:09:00,
2013-01-08 22:14:00,25.9,25.9,29.71,East,87,0.0,0.0,100,-99.99,,,-99.99,WSDL version 423,2013-01-09 03:14:00,
2013-01-08 22:19:00,26.1,26.1,29.71,NNE,23,0.0,0.0,100,-99.99,,,-99.99,WSDL version 423,2013-01-09 03:19:00,
2013-01-08 22:24:00,26.1,26.1,29.71,NNE,23,0.0,0.0,100,-99.99,,,-99.99,WSDL version 423,2013-01-09 03:24:00,
2013-01-08 22:29:00,26.3,26.3,29.71,ENE,65,0.0,0.0,100,-99.99,,,-99.99,WSDL version 423,2013-01-09 03:29:00,
2013-01-08 22:34:00,26.6,26.6,29.71,East,98,0.0,0.0,100,-99.99,,,-99.99,WSDL version 423,2013-01-09 03:34:00,
2013-01-08 22:39:00,26.8,26.8,29.71,ESE,113,0.0,0.0,100,-99.99,,,-99.99,WSDL version 423,2013-01-09 03:39:00,
2013-01-08 22:44:00,26.7,26.7,29.71,ESE,113,0.0,0.0,100,-99.99,,,-99.99,WSDL version 423,2013-01-09 03:44:00,
2013-01-08 22:49:00,26.5,26.5,29.71,ESE,113,0.0,0.0,100,-99.99,,,-99.99,WSDL version 423,2013-01-09 03:49:00,
2013-01-08 22:54:00,26.4,26.4,29.71,East,90,0.0,0.0,100,-99.99,,,-99.99,WSDL version 423,2013-01-09 03:54:00,
2013-01-08 22:59:00,26.4,26.4,29.71,East,90,0.0,0.0,100,-99.99,,,-99.99,WSDL version 423,2013-01-09 03:59:00,
2013-01-08 23:04:00,26.5,26.5,29.71,East,90,0.0,0.0,100,-99.99,,,-99.99,WSDL version 423,2013-01-09 04:04:00,
2013-01-08 23:09:00,26.5,26.5,29.71,East,90,0.0,0.0,100,-99.99,,,-99.99,WSDL version 423,2013-01-09 04:09:00,
2013-01-08 23:14:00,26.4,26.4,29.71,East,90,0.0,0.0,100,-99.99,,,-99.99,WSDL version 423,2013-01-09 04:14:00,
2013-01-08 23:19:00,26.4,26.4,29.71,East,93,0.0,0.0,100,-99.99,,,-99.99,WSDL version 423,2013-01-09 04:19:00,
2013-01-08 23:24:00,26.4,26.4,29.71,ESE,113,0.0,0.0,100,-99.99,,,-99.99,WSDL version 423,2013-01-09 04:24:00,
2013-01-08 23:29:00,26.4,26.4,29.71,SE,135,0.0,0.0,100,-99.99,,,-99.99,WSDL version 423,2013-01-09 04:29:00,
2013-01-08 23:34:00,26.5,26.5,29.71,SSE,158,0.0,0.0,100,-99.99,,,-99.99,WSDL version 423,2013-01-09 04:34:00,
2013-01-08 23:39:00,26.6,26.6,29.71,South,186,0.0,0.0,100,-99.99,,,-99.99,WSDL version 423,2013-01-09 04:39:00,
2013-01-08 23:44:00,26.6,26.6,29.71,SSW,203,0.0,0.0,100,-99.99,,,-99.99,WSDL version 423,2013-01-09 04:44:00,
2013-01-08 23:49:00,26.7,26.7,29.71,SSE,158,0.0,0.0,100,-99.99,,,-99.99,WSDL version 423,2013-01-09 04:49:00,
2013-01-08 23:54:00,26.8,26.8,29.71,South,177,0.0,0.0,100,-99.99,,,-99.99,WSDL version 423,2013-01-09 04:54:00,
2013-01-08 23:59:00,26.9,26.9,29.71,South,180,0.0,0.0,100,-99.99,,,-99.99,WSDL version 423,2013-01-09 04:59:00,